Buy Sell Trade

Welcome to WRMJ’s Buy Sell Trade program!

We welcome your participation every Saturday morning from 8:30 to 9:00. Here are a few guidelines:

  • Call 309-582-5626 between 8:30 and 9:00 a.m. to be on the program.
  • Only four items will be accepted per call.
  • Only animals that are “free” will be accepted.
  • Sorry, but we don’t accept …
    • Garage sale items
    • Real estate
    • Licensed vehicles or vehicles to be parted out
    • Mattresses
    • Guns
    • Ammunition
DATETYPEITEMPHONE
8/26/17FREEZUCCHINI SQUASH309-596-2447
8/26/17FS40-50 ASSORTED VHS MOVIES - $30/ALL309-373-5077
8/26/17FSCENTRAL AIR CONDITIONER WITH A-COIL - $75309-373-5077
8/26/17FSBLACK & DECKER BATTERY OPERATED TRIMMER w/CHARGER309-582-8380
8/26/17FSBELTONE HEARING AIDS w/BATTERIES309-582-8380
8/26/17LF4' x 4' 3 1/2' WINDOW309-582-8380
8/26/17LFCEMENT OR METAL BIRD BATH309-582-8380
8/26/17FSUSED GAS GRILL - $25309-791-1470
8/26/17FSRUBBERMAID TOTE OF FABRIC MATERIAL - $5309-791-1470
8/26/17FREEDVD PLAYER309-337-5030
8/26/17LFSMALL CHEST FREEZER, IN ALEDO309-337-9735
8/26/17LFDOG RUN OR KENNEL309-337-9735
8/26/17FSWIDE MOUTH CANNING JARS $3/DOZEN309-587-8583
8/26/17FS4 HONEYCOMB TRANS AM RIMS - $50 EACH obo309-221-9791
9/2/17FS1936 FARMALL F30 TRACTOR, RUNS WELL - $1800309-582-7336
9/2/17FS1952 JOHN DEERE "A" TRACTOR w/#45 LOADER
- $2400 obo
309-582-7336
9/2/17LF2 WING BACK CHAIRS & METAL OR CEMENT BIRD BATH309-582-8380
9/2/17FS2 PAIR MEN'S OVERSHOES, SIZES 10 & 13 - $15 EACH309-582-2633
9/2/17FS3 PAIR STEEL TOE WORK BOOTS - $25 EACH309-582-2633
9/2/17FS3 PAIR WESTERN BOOTS, SIZE 9, 3 DIFFERENT STYLES - $50 EACH309-582-2633
9/2/17FSPLASTIC CHAIR MAT FOR A CARPETED SURFACE, 3' x 4' - $5309-371-6058
9/2/17FS14' FISHING BOAT - $300309-521-8135
9/2/17FS4 OLD STEEL WAGON WHEELS - BEST OFFER309-582-2925
9/2/17FSWALK BEHIND SPREADER - $5309-221-9791
9/2/17FSDESK & CHAIR - $5309-221-9791
9/2/17FSLEAF BLOWER - $15309-221-9791
9/2/17FSLIFT CYLINDER FOR A SEMI DUMP TRAILER - $15309-221-9791
9/2/17LFSTAINLESS STEEL SLICER, 12" BLADE309-374-2732
9/2/17FSCRAFTSMAN 20hp. 48" DECK MOWER - $400309-737-3646
9/2/17FSHEAVY DUTY DRILL PRESS - $75309-737-3646
9/2/17FSBENCH GRINDER - $50309-737-3646
9/2/17FSGAS GRILL w/4 BURNERS & SIDE BURNER - $100309-737-3646
9/2/17FSCRATES309-582-4416
9/2/17FSCALF CREEP FEEDER309-582-4416
9/2/17FSSMALL ANIMAL FEEDER309-582-4416
9/2/17FS3 GRILLS - $15 EACH, CALL FOR DETAILS309-582-4416
9/2/17FSXL ROCKRIDGE LINED PULLOVER SWEATSHIRT & LIGHTWEIGHT JACKET w/ZIPPER - $15/ALL309-235-9353
9/2/17FSSTEEL HORSE STALL DOOR, 86 1/2" TALL x 49" WIDE - $300 NEW!309-867-2642
9/2/17FS1000 GALLON LP TANK - $800563-260-5555
9/2/17FSCONCRETE BIRD BATH - BEST OFFER309-582-4723
9/9/17FS4 PC. LAWN FURNITURE SET - $50309-517-4037
9/9/17FS4 - CHROME MAG FORD RIMS, 6-BOLT 18" - $200/SET309-716-8985
9/9/17FS5 PORCELAIN DOLLS - $5 EACH309-582-5408
9/9/17FSBABY CAR SEAT - $20 obo309-582-5408
9/9/17FSBABY JUMPER - $20309-582-5408
9/9/17FSBABY SWING - $10309-582-5408
9/9/17LFFLAT BED GOOSENECK TRAILER, 20'-24' LONG563-260-2883
9/9/17FS4 - 235 60 R17 TIRES - $300/SET309-374-2693
9/9/17LFCEDAR CHEST309-716-8918
9/9/17FS19 PAIR WOMEN'S SHOES, SIZE 5-6 - $5/PR.309-795-1655
9/9/17FSUNDER CABINET RADIO/CD PLAYER561-543-5655
in Aledo
9/9/17LFPORTABLE ELECTRIC HACKSAW309-582-2358 or
309-337-2717
9/9/17FSHOT TUB BRACKET - $150309-738-4876
9/9/17FSCRAFTSMAN 20hp., 48" DECK MOWER - $400309-737-3646
9/9/17FSHEAVY DUTY FLOOR VISE - $40309-737-3646
9/9/17FSBLOWER FAN - $40309-737-3646
9/9/17FS POOL LADDER - $50309-754-8352 or
309-373-4665
9/9/17FSLOG SPLITTER 5.5 hp. - $500309-371-5796
9/9/17FSJOHN DEERE SELF-PROPELLED TOY COMBINE - BEST OFFER309-221-9791
9/9/17FS50 POUNDS OF GALVANIZED ROOFING NAILS309-221-9791
9/9/17FS25 POUNDS OF SHINGLE NAILS309-221-9791
9/9/17FSSMALL COMPUTER DESK - $10309-582-4416
9/9/17FSDOG CRATES309-582-4416
9/9/17FSLITTLE TYKES KIDS CAR - $20309-582-4416
9/16/17FREESTRING TRIMMER309-582-6227
9/16/17FSTOW BAR - $20309-582-6227
9/16/17FS4 x 8 TILTING UTILITY TRAILER - $200563-571-6194
9/16/17FSUNDER CABINET RADIO/CD PLAYER - $25561-543-5655
9/16/17FS6 NEW PISTONS FOR A CHEVY .292 ENGINE, 6 CYLINDER w/RINGS - BEST OFFER309-221-9791
9/16/17FS14' FISHING BOAT, GC - $300309-521-8135
9/16/17FS5 x 5 OUTDOOR DOG KENNEL - BEST OFFER563-299-8891
9/16/17FSGREEN LOVESEAT - BEST OFFER563-299-8891
9/16/17FSSTAINED OAK CRIB563-299-8891
9/16/17FS900 BALES OF 1ST CUT ALFALFA/ORCHARD GRASS MIX HAY - $4.75/BALE309-781-0386
9/16/17LFTRAILER PULLED BY A BIKE309-582-5464
9/16/17FSHIGH WHEEL MOWER - $175309-596-2447